Regional Weather Roundup
Issued by NWS

Home | Current Version | Previous Version | Graphics & Text | Print | Product List | Glossary On
Versions: 1 2 3 4 5 6 7 8 9 10 11 12 13 14 15 16 17 18 19 20 21 22 23 24 25 26 27 28 29 30 31 32 33 34 35 36 37 38 39 40 41 42 43 44 45 46 47 48 49 50
273
ASUS45 KTFX 120210
RWRMT
MONTANA REGIONAL WEATHER ROUNDUP
NATIONAL WEATHER SERVICE GREAT FALLS MT
700 PM MST THU FEB 11 2016

NOTE: "FAIR" INDICATES FEW OR NO CLOUDS BELOW 12000 FEET WITH NO
SIGNIFICANT WEATHER AND/OR OBSTRUCTIONS TO VISIBILITY.

MTZ001>007-043-120300-
WEST OF THE DIVIDE

CITY           SKY/WX    TMP DP  RH WIND       PRES   REMARKS
KALISPELL      PTCLDY    34  30  85 CALM      30.26R
MISSOULA       CLOUDY    40  32  73 CALM      30.26S
BUTTE          CLOUDY    36  30  79 S5        30.28R
MULLAN PASS    LGT RAIN  33  31  92 S5        30.25S
ANACONDA         N/A     41  28  60 CALM      30.27S
DEER LODGE       N/A     39  30  70 W5        30.28S
HAMILTON         N/A     45  36  70 SE3       30.26S
PLAINS           N/A     45  36  70 CALM      30.25S
THOMPSON FALLS   N/A     45  36  70 CALM      30.29R
$$

MTZ008-052>055-120300-
SOUTHWEST MONTANA

CITY           SKY/WX    TMP DP  RH WIND       PRES   REMARKS
BOZEMAN        CLOUDY    38  29  70 S3        30.25S
DILLON         CLOUDY    38  29  70 S10       30.26R WCI  31
ENNIS          CLOUDY    41  28  60 S9G15     30.32R
TWIN BRIDGES     N/A     38  28  67 E7        30.22
$$

MTZ009-010-012-014-046-048-049-054-120300-
EAST SLOPES AND CENTRAL MONTANA

CITY           SKY/WX    TMP DP  RH WIND       PRES   REMARKS
CUT BANK       CLOUDY    36  29  75 E5        30.25R
GREAT FALLS    PTCLDY    41  30  65 NE7       30.25R
HELENA         CLOUDY    45  27  49 NW3       30.23S
CHOTEAU          N/A     39  30  70 E5        30.27R
CONRAD           N/A     38  31  76 MISG      30.25R
$$

MTZ011-013-016-021-045-047-050-051-120300-
NORTH CENTRAL MONTANA

CITY           SKY/WX    TMP DP  RH WIND       PRES   REMARKS
HAVRE          CLOUDY    33  31  92 S5        30.27R
LEWISTOWN      CLOUDY    41  30  65 NW3       30.23R
N BAR RANCH      N/A     39  25  56 W6        30.24S
CHINOOK          N/A     36  30  80 W7        30.27R WCI  30
$$

MTZ017>020-022>027-061-062-120300-
NORTHEAST MONTANA

CITY           SKY/WX    TMP DP  RH WIND       PRES   REMARKS
GLASGOW        CLOUDY    31  26  82 S3        30.25R
JORDAN           N/A     31  28  89 CALM      30.24R
SIDNEY         CLOUDY    25  19  80 N5        30.28R
WOLF POINT     CLOUDY    28  21  75 CALM      30.29R
PLENTYWOOD       N/A     19  16  86 N6        30.28R WCI  11
POPLAR           N/A     25  19  80 CALM      30.29S
SCOBEY           N/A     23  14  68 N7        30.22R WCI  15
$$

MTZ028>42-056>058-120300-
SOUTHCENTRAL AND SOUTHEAST MONTANA

CITY           SKY/WX    TMP DP  RH WIND       PRES   REMARKS
BAKER          CLOUDY    29  24  82 NW10      30.22R WCI  20
BILLINGS       MOCLDY    49  21  33 N6        30.21R
LIVINGSTON     CLOUDY    47  23  38 W9        30.23R
MILES CITY     CLOUDY    33  27  78 N12       30.24R WCI  24
EKALAKA          N/A     29  25  85 N7        30.15R WCI  22
FORSYTH          N/A     36  30  80 NE5       30.23S
LAUREL           N/A     48  18  30 N1        30.18
ROUNDUP          N/A     44  21  40 CALM      30.12R
$$

REGIONAL REPORTS...DAKOTAS

CITY           SKY/WX    TMP DP  RH WIND       PRES   REMARKS
WILLISTON      CLOUDY    21  16  81 NE7       30.28R WCI  12
MINOT          CLOUDY    19  10  68 NW5       30.27S
DICKINSON      CLOUDY    23  18  81 N3        30.19R
BEACH          CLOUDY    25  25 100 N9        30.25S WCI  15
CROSBY         CLOUDY    18  16  93 NW5       30.30R
TIOGA          CLOUDY    18  18 100 N8        30.30S WCI   7
WATFORD CITY   CLOUDY    19  16  86 N8        30.27R WCI   9
BISMARCK       CLOUDY    23  15  71 N10       30.28R WCI  12
GRAND FORKS    CLOUDY    13   5  70 N12       30.29R WCI  -1
FARGO          CLOUDY    14   6  70 NW7       30.28R WCI   4
BUFFALO SD       N/A     31  26  82 N10       30.14R WCI  22
RAPID CITY     CLOUDY    35  30  82 N16       30.17R WCI  25
$$

REGIONAL REPORTS...WYOMING/IDAHO/WASHINGTON

CITY           SKY/WX    TMP DP  RH WIND       PRES   REMARKS
GILLETTE       CLOUDY    41  26  55 W10       30.18R
SHERIDAN       MOCLDY    45  21  39 CALM      30.18R
BUFFALO WY     CLEAR     42  23  46 N9        30.21R
CODY           PTCLDY    45  18  33 NE7       30.22R
YELLOWSTONE LA   N/A     33  22  63 CALM      30.36S
IDAHO FALLS    CLOUDY    25  21  85 CALM      30.38F
SALMON         CLOUDY    28  21  74 CALM      30.36S
BOISE          PTCLDY    41  34  76 CALM      30.35R
SPOKANE        LGT RAIN  41  37  86 NE6       30.24F
$$

REGIONAL REPORTS...ALBERTA

CITY           SKY/WX    TMP DP  RH WIND       PRES   REMARKS
EDMONTON       CLOUDY    18  12  79 E10       30.32R WCI   6
CALGARY        CLOUDY    37  30  75 E5        30.23R
LETHBRIDGE     CLOUDY    36  32  87 S8        30.24R WCI  29
MEDICINE HAT   CLOUDY    32  32 100 SW7       30.25R WCI  26
WATERTON GATE    N/A     41  25  52 SW12G18     N/A
CARDSTON         N/A     37  30  75 SE5         N/A
MILK RIVER       N/A     34  30  86 S3          N/A
$$

REGIONAL REPORTS...SASKATCHEWAN

CITY           SKY/WX    TMP DP  RH WIND       PRES   REMARKS
SWIFT CURRENT  FLURRIES  18  16  93 E13       30.25R WCI   4
REGINA         FLURRIES  10   5  79 N12       30.33R WCI  -4
SASKATOON      MOCLDY     9   3  78 NE6       30.43R WCI  -1
VAL MARIE        N/A     27  23  86 NE3         N/A
ROCKGLEN         N/A     18  16  93 N5          N/A
ASSINIBOIA       N/A     16  12  86 E9          N/A  WCI   4
$$




USA.gov is the U.S. government's official web portal to all federal, state and local government web resources and services.